Weather History for Knoxville, TN

Change the Weather History Date:

Friday, February 14, 2014

  Actual Average Record
Temperature  
Mean Temperature 40 °F 42 °F  
Max Temperature 50 °F 52 °F 75 °F (1949)
Min Temperature 30 °F 32 °F -10 °F (1905)
Degree Days  
Heating Degree Days 25 23  
Month to date heating degree days 379 341  
Since 1 July heating degree days 2768 2603  
Cooling Degree Days 0 0  
Month to date cooling degree days 0 0  
Year to date cooling degree days 0 0  
Moisture  
Dew Point 32 °F    
Average Humidity 72    
Maximum Humidity 89    
Minimum Humidity 54    
Precipitation  
Precipitation 0.08 in 0.16 in 3.02 in (1933)
Month to date precipitation 3.28 2.12  
Year to date precipitation 6.40 6.44  
Snow  
Snow 0.00 in 0.00 in - ()
Month to date snowfall 5.9 0.9  
Since 1 July snowfall 10.9 4.4  
Snow Depth 0.00 in    
Sea Level Pressure  
Sea Level Pressure 29.77 in    
Wind  
Wind Speed 13 mph (SW)    
Max Wind Speed 22 mph    
Max Gust Speed 29 mph    
Visibility 10 miles    
Events Rain    
T = Trace of Precipitation, MM = Missing Value Source: NWS Daily Summary

Daily Weather History Graph

Daily Weather History Graph

Search for Another Location

Airport:

Trip Planner

Search our weather history database for the weather conditions in past years. The results will help you decide how hot, cold, wet, or windy it might be!

Date:

Astronomy

Feb. 14, 2014 Rise Set
Actual Time 7:24 AM EST 6:16 PM EST
Civil Twilight 6:57 AM EST 6:42 PM EST
Nautical Twilight 6:27 AM EST 7:12 PM EST
Astronomical Twilight 5:58 AM EST 7:42 PM EST
Moon 6:17 PM EST (2/14) 6:51 AM EST (2/14)
Length of Visible Light 11h 45m
Length of Day
10h 52m
Full, 100% of the Moon is Illuminated
Feb 14
Full
Feb 14
Full
Feb 22
Last Quarter
Mar 1
New
Mar 8
First Quarter

Hourly Weather History & Observations

Time (EST) Temp. Windchill Dew Point Humidity Pressure Visibility Wind Dir Wind Speed Gust Speed Precip Events Conditions
12:53 AM 32.0 °F 23.6 °F 25.0 °F 75% 29.86 in 10.0 mi SW 10.4 mph - N/A   Clear
1:53 AM 30.9 °F 21.7 °F 25.0 °F 79% 29.86 in 10.0 mi SSW 11.5 mph - N/A   Clear
2:53 AM 33.1 °F 24.4 °F 26.1 °F 75% 29.86 in 10.0 mi SSW 11.5 mph - N/A   Clear
3:53 AM 32.0 °F 23.6 °F 26.1 °F 79% 29.85 in 10.0 mi SW 10.4 mph - N/A   Clear
4:53 AM 33.1 °F 24.4 °F 26.1 °F 75% 29.85 in 10.0 mi SSW 11.5 mph - N/A   Clear
5:53 AM 32.0 °F 22.5 °F 25.0 °F 75% 29.86 in 10.0 mi SSW 12.7 mph - N/A   Clear
6:53 AM 30.9 °F 22.8 °F 24.1 °F 76% 29.87 in 10.0 mi SSW 9.2 mph - N/A   Clear
7:53 AM 32.0 °F 24.8 °F 24.1 °F 73% 29.87 in 10.0 mi SW 8.1 mph - N/A   Scattered Clouds
8:53 AM 34.0 °F 26.6 °F 26.1 °F 73% 29.87 in 10.0 mi SW 9.2 mph - N/A   Scattered Clouds
10:53 AM 39.9 °F 30.5 °F 28.0 °F 63% 29.87 in 10.0 mi SW 19.6 mph - N/A   Scattered Clouds
11:53 AM 41.0 °F 33.1 °F 28.9 °F 62% 29.86 in 10.0 mi SW 15.0 mph - N/A   Mostly Cloudy
12:53 PM 44.1 °F 38.1 °F 30.0 °F 58% 29.85 in 10.0 mi WSW 11.5 mph - N/A   Overcast
1:53 PM 45.0 °F 39.7 °F 32.0 °F 60% 29.78 in 10.0 mi SW 10.4 mph - N/A   Overcast
2:53 PM 46.9 °F - 33.1 °F 59% 29.74 in 10.0 mi SW 11.5 mph - N/A   Overcast
3:53 PM 48.9 °F - 34.0 °F 56% 29.72 in 10.0 mi SSW 11.5 mph - N/A   Overcast
4:53 PM 48.9 °F - 32.0 °F 52% 29.71 in 10.0 mi WSW 13.8 mph - N/A   Overcast
5:53 PM 48.0 °F - 32.0 °F 54% 29.70 in 10.0 mi WSW 18.4 mph - N/A   Overcast
6:53 PM 45.0 °F 38.9 °F 32.0 °F 60% 29.69 in 10.0 mi SW 12.7 mph - N/A   Overcast
7:53 PM 46.0 °F 41.9 °F 34.0 °F 63% 29.68 in 10.0 mi West 8.1 mph - 0.00 in   Overcast
8:53 PM 44.1 °F 37.4 °F 36.0 °F 73% 29.69 in 10.0 mi SW 13.8 mph - 0.00 in Rain Light Rain
9:53 PM 43.0 °F 35.4 °F 39.0 °F 86% 29.68 in 7.0 mi SSW 16.1 mph 28.8 mph 0.02 in Rain Light Rain
10:03 PM 42.1 °F 34.2 °F 39.0 °F 89% 29.67 in 9.0 mi SSW 16.1 mph - 0.01 in Rain Light Rain
10:53 PM 42.1 °F 34.5 °F 39.0 °F 89% 29.67 in 8.0 mi SW 15.0 mph - 0.04 in Rain Light Rain
11:22 PM 42.1 °F 34.9 °F 39.9 °F 92% 29.66 in 9.0 mi SW 13.8 mph - 0.01 in Rain Light Rain
11:38 PM 41.0 °F 33.9 °F 39.9 °F 96% 29.65 in 10.0 mi SW 12.7 mph - 0.02 in Rain Light Rain
11:51 PM 42.8 °F 35.8 °F 39.2 °F 87% 29.66 in 10.0 mi SW 13.8 mph - 0.02 in Rain Light Rain
11:53 PM 42.1 °F 34.9 °F 39.9 °F 92% 29.66 in 10.0 mi SW 13.8 mph - 0.02 in Rain Light Rain
11:58 PM 41.0 °F 33.5 °F 39.9 °F 96% 29.66 in 10.0 mi SW 13.8 mph - 0.00 in Rain Light Rain